DW8529 Weather Reports


Display with metric or nautical units.
time (UTC)temp
F
wind
direction
speed
MPH
gust
MPH
rain 1hr
in
rain 24hr
in
rain mn
in
humidity
%
barometer
mb
20190923095526 64 132 8.0 17.0 0.00 0.00 0.00 73 1013.5
20190923095027 64 129 10.0 16.0 0.00 0.00 0.00 73 1013.4
20190923094526 64 132 9.0 15.0 0.00 0.00 0.00 75 1013.4
20190923094026 64 116 7.0 15.0 0.00 0.00 0.00 76 1013.4
20190923093527 63 125 9.0 17.0 0.00 0.00 0.00 78 1013.3
20190923093026 63 130 7.0 15.0 0.00 0.00 0.00 79 1013.5
20190923092526 63 125 10.0 18.0 0.00 0.00 0.00 77 1013.5
20190923091527 63 122 8.0 16.0 0.00 0.00 0.00 79 1013.5
20190923091026 62 130 9.0 15.0 0.00 0.00 0.00 80 1013.5
20190923090526 62 124 10.0 13.0 0.00 0.00 0.00 79 1013.8
20190923090026 62 133 9.0 13.0 0.00 0.00 0.00 80 1013.7
20190923085527 62 130 7.0 16.0 0.00 0.00 0.00 80 1013.6
20190923085027 62 128 9.0 14.0 0.00 0.00 0.00 80 1013.6
20190923084526 61 127 8.0 15.0 0.00 0.00 0.00 81 1013.5
20190923084027 61 109 9.0 15.0 0.00 0.00 0.00 81 1013.5
20190923083527 61 113 7.0 15.0 0.00 0.00 0.00 81 1013.6
20190923083026 61 114 9.0 16.0 0.00 0.00 0.00 82 1013.6
20190923082526 60 115 9.0 15.0 0.00 0.00 0.00 82 1013.5
20190923082026 60 113 9.0 17.0 0.00 0.00 0.00 83 1013.5
20190923081526 60 115 6.0 16.0 0.00 0.00 0.00 83 1013.5
20190923081027 60 100 7.0 15.0 0.00 0.00 0.00 83 1013.5
20190923080526 60 106 6.0 16.0 0.00 0.00 0.00 84 1013.4
20190923080027 60 115 6.0 14.0 0.00 0.00 0.00 84 1013.5
20190923075526 60 121 7.0 13.0 0.00 0.00 0.00 84 1013.6
20190923075026 60 121 6.0 14.0 0.00 0.00 0.00 85 1013.5
20190923074526 60 134 8.0 16.0 0.00 0.00 0.00 85 1013.4
20190923074026 60 98 6.0 12.0 0.00 0.00 0.00 85 1013.4
20190923073526 60 95 6.0 12.0 0.00 0.00 0.00 85 1013.3
20190923073026 59 119 7.0 15.0 0.00 0.00 0.00 85 1013.3
20190923072527 59 99 5.0 12.0 0.00 0.00 0.00 86 1013.4
20190923072026 59 101 7.0 12.0 0.00 0.00 0.00 86 1013.3
20190923071526 59 99 5.0 12.0 0.00 0.00 0.00 86 1013.3
20190923071027 59 121 4.0 12.0 0.00 0.00 0.00 87 1013.1
20190923070527 59 100 7.0 13.0 0.00 0.00 0.00 87 1013.1
20190923070027 59 94 7.0 14.0 0.00 0.00 0.00 87 1013.2
20190923065526 58 122 6.0 10.0 0.00 0.00 0.00 87 1013.1
20190923065027 58 103 5.0 12.0 0.00 0.00 0.00 87 1013.0
20190923064527 58 120 8.0 14.0 0.00 0.00 0.00 87 1012.9
20190923064027 58 105 5.0 12.0 0.00 0.00 0.00 87 1012.9
20190923063527 58 110 6.0 13.0 0.00 0.00 0.00 87 1012.8
20190923063026 58 107 7.0 13.0 0.00 0.00 0.00 87 1013.0
20190923062527 58 89 7.0 12.0 0.00 0.00 0.00 87 1012.9
20190923062027 58 109 5.0 13.0 0.00 0.00 0.00 88 1012.9
20190923061526 58 114 7.0 13.0 0.00 0.00 0.00 88 1012.9
20190923061026 58 107 5.0 13.0 0.00 0.00 0.00 88 1012.8
20190923060527 58 98 6.0 12.0 0.00 0.00 0.00 88 1012.7
20190923060026 58 92 6.0 16.0 0.00 0.00 0.00 88 1012.8
20190923055526 58 103 6.0 13.0 0.00 0.00 0.00 88 1012.7
20190923055027 58 105 7.0 14.0 0.00 0.00 0.00 88 1012.6
20190923054527 58 103 7.0 14.0 0.00 0.00 0.00 88 1012.7
20190923054026 58 105 6.0 10.0 0.00 0.00 0.00 88 1012.7
20190923053527 58 99 7.0 12.0 0.00 0.00 0.00 88 1012.6
20190923053027 58 95 6.0 12.0 0.00 0.00 0.00 88 1012.6
20190923052526 58 114 7.0 12.0 0.00 0.00 0.00 88 1012.6
20190923052027 58 117 7.0 16.0 0.00 0.00 0.00 88 1012.6
20190923051526 58 102 4.0 12.0 0.00 0.00 0.00 88 1012.3
20190923051027 58 107 6.0 12.0 0.00 0.00 0.00 88 1012.3
20190923050526 58 105 6.0 12.0 0.00 0.00 0.00 88 1012.3
20190923050027 58 102 7.0 14.0 0.00 0.00 0.00 88 1012.3
20190923045526 58 108 6.0 15.0 0.00 0.00 0.00 88 1012.4
20190923045026 57 111 7.0 14.0 0.00 0.00 0.00 88 1012.4
20190923044527 57 113 7.0 13.0 0.00 0.00 0.00 88 1012.3
20190923044026 57 111 7.0 17.0 0.00 0.00 0.00 88 1012.2
20190923043526 57 112 9.0 14.0 0.00 0.00 0.00 88 1012.2
20190923043026 57 101 6.0 12.0 0.00 0.00 0.00 88 1012.2
20190923042527 57 106 7.0 13.0 0.00 0.00 0.00 88 1012.3
20190923042026 57 103 6.0 12.0 0.00 0.00 0.00 88 1012.3
20190923041527 57 102 9.0 17.0 0.00 0.00 0.00 88 1012.3
20190923041027 57 102 7.0 13.0 0.00 0.00 0.00 88 1012.1
20190923040526 57 107 7.0 16.0 0.00 0.00 0.00 88 1012.3
20190923040029 57 124 8.0 15.0 0.00 0.00 0.00 88 1012.2
20190923035526 57 95 6.0 12.0 0.00 0.00 0.00 88 1012.2
20190923035026 57 99 7.0 12.0 0.00 0.00 0.00 88 1012.1
20190923034526 57 106 7.0 16.0 0.00 0.00 0.00 88 1012.1
20190923034027 57 92 6.0 14.0 0.00 0.00 0.00 88 1012.2
20190923033527 57 125 6.0 12.0 0.00 0.00 0.00 88 1012.3
20190923033027 57 107 8.0 13.0 0.00 0.00 0.00 88 1012.2
20190923032526 57 103 6.0 13.0 0.00 0.00 0.00 88 1012.2
20190923032026 57 104 6.0 14.0 0.00 0.00 0.00 88 1012.1
20190923031527 57 108 8.0 16.0 0.00 0.00 0.00 88 1012.1
20190923031027 57 93 7.0 16.0 0.00 0.00 0.00 88 1012.0
20190923030526 57 98 7.0 14.0 0.00 0.00 0.00 88 1012.1
20190923030026 58 115 6.0 12.0 0.00 0.00 0.00 88 1012.0
20190923025527 58 116 7.0 12.0 0.00 0.00 0.00 88 1012.1
20190923025026 58 111 7.0 13.0 0.00 0.00 0.00 88 1012.1
20190923024527 58 106 6.0 13.0 0.00 0.00 0.00 89 1012.0
20190923024027 58 105 6.0 13.0 0.00 0.00 0.00 89 1012.0
20190923023526 58 101 6.0 12.0 0.00 0.00 0.00 89 1012.0
20190923023027 58 93 7.0 14.0 0.00 0.00 0.00 89 1012.0
20190923022527 57 109 7.0 12.0 0.00 0.00 0.00 89 1012.1
20190923022027 57 98 7.0 12.0 0.00 0.00 0.00 88 1012.1
20190923021526 57 99 5.0 10.0 0.00 0.00 0.00 88 1011.9
20190923021027 57 103 8.0 14.0 0.00 0.00 0.00 88 1011.8
20190923020526 57 110 7.0 13.0 0.00 0.00 0.00 88 1011.8
20190923020026 57 95 5.0 12.0 0.00 0.00 0.00 87 1011.8
20190923015526 57 102 5.0 12.0 0.00 0.00 0.00 87 1011.7
20190923015027 57 97 7.0 12.0 0.00 0.00 0.00 86 1011.7
20190923014526 57 117 6.0 10.0 0.00 0.00 0.00 86 1011.7
20190923014027 57 114 5.0 10.0 0.00 0.00 0.00 85 1011.7
20190923013527 57 113 5.0 10.0 0.00 0.00 0.00 85 1011.7
20190923013027 57 105 6.0 13.0 0.00 0.00 0.00 85 1011.7
20190923012527 57 113 6.0 12.0 0.00 0.00 0.00 84 1011.6
20190923012027 57 114 7.0 12.0 0.00 0.00 0.00 84 1011.5
20190923011526 58 109 6.0 12.0 0.00 0.00 0.00 84 1011.5
20190923011027 58 98 7.0 14.0 0.00 0.00 0.00 83 1011.5
20190923010527 58 96 6.0 14.0 0.00 0.00 0.00 83 1011.5
20190923010027 58 102 7.0 13.0 0.00 0.00 0.00 82 1011.5
20190923005527 58 96 6.0 12.0 0.00 0.00 0.00 82 1011.5
20190923005026 58 99 6.0 13.0 0.00 0.00 0.00 82 1011.6
20190923004527 58 85 6.0 10.0 0.00 0.00 0.00 82 1011.6
20190923004027 58 103 5.0 12.0 0.00 0.00 0.00 82 1011.7
20190923003527 58 105 5.0 12.0 0.00 0.00 0.00 82 1011.8
20190923003027 58 101 5.0 12.0 0.00 0.00 0.00 81 1011.7
20190923002526 58 94 4.0 10.0 0.00 0.00 0.00 81 1011.7
20190923002026 58 105 6.0 12.0 0.00 0.00 0.00 82 1011.7
20190923001528 58 93 3.0 9.0 0.00 0.00 0.00 82 1011.7
20190923001027 58 101 5.0 9.0 0.00 0.00 0.00 82 1011.7
20190923000527 58 99 5.0 12.0 0.00 0.00 0.00 82 1011.6
20190923000026 58 79 3.0 7.0 0.00 0.00 0.00 82 1011.7
20190922235527 58 77 3.0 7.0 0.00 0.00 0.00 82 1011.6
20190922235026 58 86 3.0 10.0 0.00 0.00 0.00 81 1011.7
20190922234527 58 93 3.0 7.0 0.00 0.00 0.00 81 1011.7
20190922234027 58 101 4.0 8.0 0.00 0.00 0.00 81 1011.7
20190922233526 59 104 3.0 10.0 0.00 0.00 0.00 81 1011.6
20190922233027 59 100 5.0 10.0 0.00 0.00 0.00 81 1011.7
20190922232527 58 108 5.0 10.0 0.00 0.00 0.00 81 1011.5
20190922232026 58 107 4.0 8.0 0.00 0.00 0.00 81 1011.5
20190922231528 58 116 4.0 8.0 0.00 0.00 0.00 81 1011.5
20190922231027 59 107 3.0 7.0 0.00 0.00 0.00 80 1011.5
20190922230526 59 120 4.0 9.0 0.00 0.00 0.00 80 1011.5
20190922230027 59 98 6.0 12.0 0.00 0.00 0.00 80 1011.5
20190922225527 59 102 5.0 12.0 0.00 0.00 0.00 80 1011.5
20190922225027 59 125 3.0 10.0 0.00 0.00 0.00 80 1011.5
20190922224527 59 121 5.0 12.0 0.00 0.00 0.00 79 1011.4
20190922224027 59 103 5.0 12.0 0.00 0.00 0.00 79 1011.4
20190922223526 59 102 5.0 12.0 0.00 0.00 0.00 79 1011.3
20190922223026 60 110 6.0 12.0 0.00 0.00 0.00 79 1011.3
20190922222527 60 115 6.0 12.0 0.00 0.00 0.00 79 1011.5
20190922222027 59 114 5.0 10.0 0.00 0.00 0.00 79 1011.4
20190922221527 59 117 6.0 12.0 0.00 0.00 0.00 79 1011.2
20190922221027 59 99 5.0 9.0 0.00 0.00 0.00 79 1011.4
20190922220527 59 109 4.0 9.0 0.00 0.00 0.00 79 1011.4
20190922220027 59 113 5.0 9.0 0.00 0.00 0.00 79 1011.3
20190922215527 59 118 4.0 12.0 0.00 0.00 0.00 79 1011.3
20190922215026 59 114 4.0 12.0 0.00 0.00 0.00 79 1011.2
20190922214527 59 115 4.0 10.0 0.00 0.00 0.00 79 1011.3
20190922214029 59 93 3.0 9.0 0.00 0.00 0.00 79 1011.1
20190922213527 59 98 3.0 7.0 0.00 0.00 0.00 79 1011.1
20190922213027 59 91 3.0 7.0 0.00 0.00 0.00 79 1011.2
20190922212527 59 85 4.0 8.0 0.00 0.00 0.00 79 1011.2
20190922212028 59 108 5.0 10.0 0.00 0.00 0.00 78 1011.2
20190922211527 59 112 3.0 10.0 0.00 0.00 0.00 78 1011.1
20190922211027 59 91 3.0 8.0 0.00 0.00 0.00 79 1011.1
20190922210527 59 89 4.0 9.0 0.00 0.00 0.00 79 1011.2
20190922210027 59 87 3.0 7.0 0.00 0.00 0.00 78 1011.1
20190922205527 59 85 4.0 8.0 0.00 0.00 0.00 78 1011.2
20190922205027 59 83 3.0 8.0 0.00 0.00 0.00 78 1011.1
20190922204526 60 100 3.0 9.0 0.00 0.00 0.00 77 1011.0
20190922204027 60 101 5.0 9.0 0.00 0.00 0.00 78 1011.0
20190922203527 60 102 5.0 9.0 0.00 0.00 0.00 77 1010.9
20190922203027 60 93 5.0 12.0 0.00 0.00 0.00 78 1010.9
20190922202527 59 100 4.0 9.0 0.00 0.00 0.00 78 1011.0
20190922202026 59 97 3.0 9.0 0.00 0.00 0.00 78 1011.1
20190922201527 59 86 4.0 8.0 0.00 0.00 0.00 78 1010.9
20190922201027 59 95 4.0 8.0 0.00 0.00 0.00 79 1011.1
20190922200527 59 88 3.0 7.0 0.00 0.00 0.00 79 1011.2
20190922200027 59 90 3.0 6.0 0.00 0.00 0.00 79 1011.1
20190922195527 59 95 3.0 8.0 0.00 0.00 0.00 79 1011.1
20190922195027 59 89 3.0 7.0 0.00 0.00 0.00 79 1011.0
20190922194527 59 95 3.0 7.0 0.00 0.00 0.00 79 1011.1
20190922194027 59 98 3.0 8.0 0.00 0.00 0.00 79 1011.1
20190922193527 59 92 5.0 9.0 0.00 0.00 0.00 79 1010.8
20190922193027 59 85 5.0 10.0 0.00 0.00 0.00 78 1010.9
20190922192526 59 86 5.0 10.0 0.00 0.00 0.00 78 1010.9
20190922192027 59 85 5.0 9.0 0.00 0.00 0.00 78 1011.0
20190922191527 59 89 5.0 9.0 0.00 0.00 0.00 78 1010.8
20190922191027 59 84 5.0 9.0 0.00 0.00 0.00 78 1010.8
20190922190528 59 92 3.0 8.0 0.00 0.00 0.00 78 1010.8
20190922190028 59 89 5.0 9.0 0.00 0.00 0.00 77 1010.8
20190922185527 59 85 5.0 9.0 0.00 0.00 0.00 77 1010.8
20190922185027 59 84 3.0 8.0 0.00 0.00 0.00 76 1010.8
20190922184527 60 79 3.0 8.0 0.00 0.00 0.00 76 1010.8
20190922184027 60 97 2.0 8.0 0.00 0.00 0.00 74 1010.8
20190922183527 60 92 3.0 7.0 0.00 0.00 0.00 74 1010.9
20190922183027 60 88 3.0 7.0 0.00 0.00 0.00 73 1010.7
20190922182527 60 83 3.0 7.0 0.00 0.00 0.00 72 1010.7
20190922182027 60 79 2.0 5.0 0.00 0.00 0.00 72 1010.7
20190922181528 61 97 3.0 8.0 0.00 0.00 0.00 71 1010.6
20190922181027 61 81 3.0 8.0 0.00 0.00 0.00 70 1010.7
20190922180527 61 89 2.0 7.0 0.00 0.00 0.00 70 1010.5
20190922180027 62 77 3.0 7.0 0.00 0.00 0.00 70 1010.5
20190922175527 62 84 3.0 7.0 0.00 0.00 0.00 69 1010.5
20190922175027 62 87 5.0 8.0 0.00 0.00 0.00 69 1010.4
20190922174527 62 117 4.0 8.0 0.00 0.00 0.00 69 1010.4
20190922174027 62 87 3.0 8.0 0.00 0.00 0.00 69 1010.6
20190922173527 62 99 3.0 9.0 0.00 0.00 0.00 69 1010.5
20190922173027 62 108 5.0 8.0 0.00 0.00 0.00 69 1010.4
20190922172528 62 87 3.0 8.0 0.00 0.00 0.00 69 1010.5
20190922172027 62 82 3.0 8.0 0.00 0.00 0.00 69 1010.6
20190922171527 62 89 3.0 7.0 0.00 0.00 0.00 68 1010.5
20190922171027 63 86 3.0 8.0 0.00 0.00 0.00 68 1010.5
20190922170527 63 97 2.0 7.0 0.00 0.00 0.00 68 1010.5
20190922170027 63 131 3.0 7.0 0.00 0.00 0.00 67 1010.6
20190922165527 63 126 3.0 8.0 0.00 0.00 0.00 67 1010.6
20190922165027 63 122 3.0 7.0 0.00 0.00 0.00 66 1010.7
20190922164527 64 98 3.0 8.0 0.00 0.00 0.00 66 1010.5
20190922164027 64 97 4.0 10.0 0.00 0.00 0.00 66 1010.6
20190922163527 64 96 3.0 8.0 0.00 0.00 0.00 65 1010.7
20190922163027 64 116 2.0 8.0 0.00 0.00 0.00 64 1010.8
20190922162527 65 131 4.0 8.0 0.00 0.00 0.00 64 1010.7
20190922162027 65 118 5.0 12.0 0.00 0.00 0.00 63 1010.7
20190922161527 65 125 5.0 9.0 0.00 0.00 0.00 62 1010.7
20190922161027 65 100 3.0 9.0 0.00 0.00 0.00 62 1010.6
20190922160527 66 117 4.0 14.0 0.00 0.00 0.00 61 1010.6
20190922160029 66 113 6.0 13.0 0.00 0.00 0.00 61 1010.6
20190922155527 66 103 4.0 10.0 0.00 0.00 0.00 61 1010.6
20190922155027 66 123 6.0 12.0 0.00 0.00 0.00 60 1010.5
20190922154527 66 112 6.0 16.0 0.00 0.00 0.00 59 1010.5
20190922154027 67 115 7.0 12.0 0.00 0.00 0.00 58 1010.6
20190922153527 67 110 5.0 10.0 0.00 0.00 0.00 59 1010.6
20190922153027 67 95 3.0 8.0 0.00 0.00 0.00 59 1010.6
20190922152528 67 104 5.0 10.0 0.00 0.00 0.00 58 1010.7
20190922152027 68 133 5.0 12.0 0.00 0.00 0.00 59 1010.7
20190922151527 68 133 6.0 12.0 0.00 0.00 0.00 59 1010.7
20190922151027 68 128 6.0 10.0 0.00 0.00 0.00 59 1010.8
20190922150527 68 133 6.0 12.0 0.00 0.00 0.00 58 1010.7
20190922150027 69 129 6.0 10.0 0.00 0.00 0.00 56 1010.7
20190922145527 69 128 6.0 12.0 0.00 0.00 0.00 52 1010.6
20190922145027 69 132 7.0 13.0 0.00 0.00 0.00 51 1010.6
20190922144528 69 133 7.0 13.0 0.00 0.00 0.00 51 1010.7
20190922144027 70 128 5.0 10.0 0.00 0.00 0.00 51 1010.8
20190922143527 69 114 7.0 13.0 0.00 0.00 0.00 51 1010.7
20190922143027 70 131 6.0 12.0 0.00 0.00 0.00 51 1010.7
20190922142527 70 126 8.0 10.0 0.00 0.00 0.00 50 1010.8
20190922142027 69 124 5.0 12.0 0.00 0.00 0.00 51 1010.8
20190922141527 70 95 6.0 12.0 0.00 0.00 0.00 50 1010.9
20190922141028 69 110 7.0 13.0 0.00 0.00 0.00 49 1010.8
20190922140527 70 108 6.0 10.0 0.00 0.00 0.00 49 1011.0
20190922140028 70 140 5.0 13.0 0.00 0.00 0.00 51 1011.0
20190922135528 70 135 9.0 14.0 0.00 0.00 0.00 49 1011.1
20190922135027 70 127 7.0 10.0 0.00 0.00 0.00 49 1011.1
20190922134527 70 126 5.0 9.0 0.00 0.00 0.00 50 1011.3
20190922134027 70 120 7.0 12.0 0.00 0.00 0.00 50 1011.2
20190922133527 70 96 6.0 13.0 0.00 0.00 0.00 50 1011.3
20190922133027 70 97 6.0 12.0 0.00 0.00 0.00 51 1011.3
20190922132527 70 120 7.0 13.0 0.00 0.00 0.00 51 1011.5
20190922132027 70 91 7.0 14.0 0.00 0.00 0.00 51 1011.5
20190922131528 70 122 7.0 13.0 0.00 0.00 0.00 52 1011.6
20190922131028 70 91 6.0 13.0 0.00 0.00 0.00 53 1011.5
20190922130527 69 131 9.0 12.0 0.00 0.00 0.00 53 1011.5
20190922130027 69 131 9.0 15.0 0.00 0.00 0.00 52 1011.6
20190922125527 69 134 8.0 16.0 0.00 0.00 0.00 51 1011.8
20190922125027 69 115 9.0 13.0 0.00 0.00 0.00 51 1011.6
20190922124527 69 120 8.0 13.0 0.00 0.00 0.00 54 1011.8
20190922124027 69 134 7.0 12.0 0.00 0.00 0.00 56 1011.9
20190922123528 68 127 8.0 13.0 0.00 0.00 0.00 58 1011.9
20190922123027 68 124 9.0 13.0 0.00 0.00 0.00 60 1011.9
20190922122527 68 128 9.0 14.0 0.00 0.00 0.00 60 1012.0
20190922122029 68 118 6.0 12.0 0.00 0.00 0.00 60 1012.0
20190922121527 67 136 8.0 14.0 0.00 0.00 0.00 61 1012.2
20190922121028 67 131 9.0 14.0 0.00 0.00 0.00 61 1012.1
20190922120528 67 120 8.0 12.0 0.00 0.00 0.00 60 1012.3
20190922120027 67 115 9.0 14.0 0.00 0.00 0.00 61 1012.3
20190922115527 67 131 9.0 17.0 0.00 0.00 0.00 62 1012.2
20190922115027 67 129 10.0 15.0 0.00 0.00 0.00 61 1012.1
20190922114528 67 134 7.0 12.0 0.00 0.00 0.00 63 1012.3
20190922114028 67 103 6.0 13.0 0.00 0.00 0.00 64 1012.2
20190922113527 67 134 8.0 14.0 0.00 0.00 0.00 61 1012.2
20190922113027 67 128 8.0 13.0 0.00 0.00 0.00 58 1012.4
20190922112527 67 120 8.0 13.0 0.00 0.00 0.00 59 1012.4
20190922112027 67 133 9.0 13.0 0.00 0.00 0.00 58 1012.5
20190922111528 66 133 7.0 16.0 0.00 0.00 0.00 60 1012.5
20190922111027 66 131 9.0 16.0 0.00 0.00 0.00 58 1012.5
20190922110528 66 136 9.0 15.0 0.00 0.00 0.00 57 1012.7
20190922110027 67 124 6.0 12.0 0.00 0.00 0.00 59 1012.6
20190922105527 67 138 5.0 12.0 0.00 0.00 0.00 59 1012.7
20190922105028 67 115 6.0 12.0 0.00 0.00 0.00 59 1012.7
20190922104527 67 130 6.0 10.0 0.00 0.00 0.00 60 1012.7
20190922104027 66 127 7.0 12.0 0.00 0.00 0.00 58 1012.8
20190922103528 66 123 7.0 14.0 0.00 0.00 0.00 59 1012.8
20190922103027 66 123 6.0 12.0 0.00 0.00 0.00 59 1012.8
20190922102527 66 127 7.0 14.0 0.00 0.00 0.00 59 1013.0
20190922102028 66 129 8.0 13.0 0.00 0.00 0.00 60 1013.1
20190922101528 66 137 7.0 12.0 0.00 0.00 0.00 61 1013.2
20190922101028 66 139 8.0 14.0 0.00 0.00 0.00 59 1013.1
20190922100527 66 128 7.0 12.0 0.00 0.00 0.00 59 1013.1
20190922100028 66 138 7.0 12.0 0.00 0.00 0.00 61 1013.1